Hourly Weather Namyur

Today, 8 July, Wednesday

Time Temperature Precipitation Wind Pressure Humidity
00:00 +13°C° 0 mm 3 mps 753 mmHg 75%
01:00 +13°C° 0 mm 3 mps 752 mmHg 76%
02:00 +13°C° 0 mm 3 mps 752 mmHg 78%
03:00 +12°C° 0 mm 3 mps 752 mmHg 79%
04:00 +12°C° 0.2 mm 3 mps 751 mmHg 81%
05:00 +12°C° 0.2 mm 4 mps 751 mmHg 84%
06:00 +12°C° 0.2 mm 5 mps 751 mmHg 86%
07:00 +12°C° 0.6 mm 5 mps 751 mmHg 88%
08:00 +13°C° 0.6 mm 5 mps 751 mmHg 90%
09:00 +13°C° 0.6 mm 5 mps 751 mmHg 91%
10:00 +13°C° 0.3 mm 5 mps 751 mmHg 93%
11:00 +14°C° 0.3 mm 5 mps 751 mmHg 94%
12:00 +14°C° 0.3 mm 5 mps 751 mmHg 95%
13:00 +15°C° 0.3 mm 5 mps 751 mmHg 95%
14:00 +15°C° 0.3 mm 5 mps 751 mmHg 96%
15:00 +15°C° 0.3 mm 5 mps 751 mmHg 96%
16:00 +15°C° 0.3 mm 4 mps 751 mmHg 96%
17:00 +15°C° 0.3 mm 4 mps 751 mmHg 97%
18:00 +15°C° 0.3 mm 4 mps 751 mmHg 97%
19:00 +15°C° 0.1 mm 4 mps 752 mmHg 97%
20:00 +16°C° 0.1 mm 3 mps 752 mmHg 97%
21:00 +16°C° 0.1 mm 3 mps 752 mmHg 97%
22:00 +16°C° 0 mm 3 mps 752 mmHg 97%
23:00 +16°C° 0 mm 3 mps 752 mmHg 97%

Tomorrow, 9 July, Thursday

Time Temperature Precipitation Wind Pressure Humidity
00:00 +16°C° 0 mm 3 mps 752 mmHg 97%
01:00 +16°C° 0 mm 3 mps 752 mmHg 97%
02:00 +16°C° 0 mm 3 mps 752 mmHg 97%
03:00 +15°C° 0 mm 4 mps 751 mmHg 97%
04:00 +15°C° 0.1 mm 4 mps 751 mmHg 96%
05:00 +15°C° 0.1 mm 4 mps 751 mmHg 96%
06:00 +15°C° 0.1 mm 4 mps 751 mmHg 95%
07:00 +17°C° 0 mm 4 mps 751 mmHg 94%
08:00 +17°C° 0 mm 4 mps 751 mmHg 92%
09:00 +18°C° 0 mm 4 mps 751 mmHg 91%
10:00 +19°C° 0 mm 5 mps 751 mmHg 85%
11:00 +20°C° 0 mm 5 mps 751 mmHg 80%
12:00 +22°C° 0 mm 5 mps 751 mmHg 74%
13:00 +23°C° 0 mm 5 mps 750 mmHg 70%
14:00 +24°C° 0 mm 6 mps 750 mmHg 65%
15:00 +26°C° 0 mm 6 mps 750 mmHg 60%
16:00 +25°C° 0 mm 5 mps 749 mmHg 64%
17:00 +25°C° 0 mm 4 mps 749 mmHg 68%
18:00 +24°C° 0 mm 3 mps 749 mmHg 73%
19:00 +21°C° 0 mm 3 mps 749 mmHg 77%
20:00 +20°C° 0 mm 3 mps 749 mmHg 81%
21:00 +18°C° 0 mm 3 mps 749 mmHg 85%
22:00 +18°C° 0 mm 3 mps 748 mmHg 85%
23:00 +18°C° 0 mm 3 mps 748 mmHg 85%

Day after tomorrow, 10 July, Friday

Time Temperature Precipitation Wind Pressure Humidity
00:00 +18°C° 0 mm 3 mps 748 mmHg 85%
01:00 +17°C° 0.1 mm 4 mps 748 mmHg 86%
02:00 +17°C° 0.1 mm 4 mps 747 mmHg 87%
03:00 +17°C° 0.1 mm 4 mps 747 mmHg 88%
04:00 +16°C° 0 mm 5 mps 747 mmHg 88%
05:00 +16°C° 0 mm 5 mps 747 mmHg 87%
06:00 +16°C° 0 mm 5 mps 746 mmHg 87%
07:00 +16°C° 0.1 mm 5 mps 747 mmHg 86%
08:00 +16°C° 0.1 mm 5 mps 747 mmHg 86%
09:00 +17°C° 0.1 mm 5 mps 747 mmHg 86%
10:00 +17°C° 0.3 mm 5 mps 748 mmHg 84%
11:00 +17°C° 0.3 mm 5 mps 748 mmHg 82%
12:00 +17°C° 0.3 mm 5 mps 749 mmHg 80%
13:00 +19°C° 0.2 mm 6 mps 749 mmHg 74%
14:00 +19°C° 0.2 mm 6 mps 749 mmHg 68%
15:00 +20°C° 0.2 mm 6 mps 750 mmHg 62%
16:00 +19°C° 0 mm 6 mps 750 mmHg 63%
17:00 +17°C° 0 mm 5 mps 751 mmHg 65%
18:00 +17°C° 0 mm 4 mps 751 mmHg 67%
19:00 +14°C° 0 mm 3 mps 752 mmHg 73%
20:00 +14°C° 0 mm 2 mps 753 mmHg 80%
21:00 +12°C° 0 mm 1 mps 753 mmHg 86%
22:00 +11°C° 0 mm 1 mps 754 mmHg 87%
23:00 +10°C° 0 mm 1 mps 754 mmHg 88%

11 July, Saturday

Time Temperature Precipitation Wind Pressure Humidity
00:00 +9°C° 0 mm 0 mps 754 mmHg 89%
01:00 +9°C° 0 mm 0 mps 754 mmHg 89%
02:00 +8°C° 0 mm 0 mps 755 mmHg 90%
03:00 +8°C° 0 mm 0 mps 755 mmHg 90%
04:00 +9°C° 0 mm 0 mps 755 mmHg 87%
05:00 +11°C° 0 mm 0 mps 756 mmHg 84%
06:00 +12°C° 0 mm 0 mps 756 mmHg 81%
07:00 +13°C° 0 mm 0 mps 756 mmHg 75%
08:00 +16°C° 0 mm 1 mps 757 mmHg 68%
09:00 +18°C° 0 mm 1 mps 757 mmHg 61%
10:00 +18°C° 0 mm 2 mps 757 mmHg 57%
11:00 +19°C° 0 mm 2 mps 757 mmHg 54%
12:00 +20°C° 0 mm 2 mps 757 mmHg 50%
13:00 +20°C° 0 mm 2 mps 757 mmHg 50%
14:00 +20°C° 0 mm 2 mps 757 mmHg 51%
15:00 +20°C° 0 mm 2 mps 757 mmHg 52%
16:00 +20°C° 0 mm 2 mps 757 mmHg 56%
17:00 +19°C° 0 mm 2 mps 758 mmHg 60%
18:00 +19°C° 0 mm 2 mps 758 mmHg 64%
19:00 +17°C° 0 mm 2 mps 758 mmHg 70%
20:00 +15°C° 0 mm 2 mps 758 mmHg 76%
21:00 +13°C° 0 mm 2 mps 759 mmHg 81%
22:00 +12°C° 0 mm 2 mps 759 mmHg 84%
23:00 +10°C° 0 mm 2 mps 759 mmHg 86%

12 July, Sunday

Time Temperature Precipitation Wind Pressure Humidity
00:00 +9°C° 0 mm 2 mps 759 mmHg 89%
01:00 +10°C° 0 mm 1 mps 759 mmHg 90%
02:00 +10°C° 0 mm 1 mps 759 mmHg 90%
03:00 +9°C° 0 mm 1 mps 759 mmHg 91%
04:00 +11°C° 0 mm 1 mps 759 mmHg 88%
05:00 +12°C° 0 mm 1 mps 759 mmHg 84%
06:00 +13°C° 0 mm 1 mps 759 mmHg 81%
07:00 +15°C° 0 mm 1 mps 760 mmHg 74%
08:00 +17°C° 0 mm 2 mps 760 mmHg 67%
09:00 +19°C° 0 mm 2 mps 760 mmHg 59%
10:00 +20°C° 0 mm 2 mps 760 mmHg 55%
11:00 +20°C° 0 mm 2 mps 760 mmHg 51%
12:00 +21°C° 0 mm 2 mps 759 mmHg 46%
13:00 +22°C° 0 mm 3 mps 759 mmHg 46%
14:00 +22°C° 0 mm 3 mps 759 mmHg 46%
15:00 +24°C° 0 mm 3 mps 758 mmHg 45%
16:00 +22°C° 0 mm 3 mps 758 mmHg 51%
17:00 +21°C° 0 mm 3 mps 758 mmHg 57%
18:00 +20°C° 0 mm 3 mps 758 mmHg 63%
19:00 +18°C° 0 mm 3 mps 758 mmHg 67%
20:00 +16°C° 0 mm 2 mps 758 mmHg 71%
21:00 +14°C° 0 mm 2 mps 758 mmHg 75%
22:00 +14°C° 0 mm 2 mps 758 mmHg 77%
23:00 +13°C° 0 mm 2 mps 758 mmHg 78%

13 July, Monday

Time Temperature Precipitation Wind Pressure Humidity
00:00 +13°C° 0 mm 2 mps 758 mmHg 80%
01:00 +12°C° 0 mm 1 mps 757 mmHg 81%
02:00 +12°C° 0 mm 1 mps 757 mmHg 82%
03:00 +12°C° 0 mm 1 mps 757 mmHg 83%
04:00 +13°C° 0 mm 1 mps 757 mmHg 79%
05:00 +14°C° 0 mm 1 mps 757 mmHg 75%
06:00 +15°C° 0 mm 0 mps 757 mmHg 71%
07:00 +17°C° 0 mm 0 mps 757 mmHg 65%
08:00 +19°C° 0 mm 0 mps 756 mmHg 58%
09:00 +21°C° 0 mm 0 mps 756 mmHg 52%
10:00 +24°C° 0 mm 1 mps 756 mmHg 49%
11:00 +25°C° 0 mm 1 mps 756 mmHg 47%
12:00 +25°C° 0 mm 1 mps 755 mmHg 44%
13:00 +26°C° 0 mm 1 mps 755 mmHg 43%
14:00 +26°C° 0 mm 1 mps 755 mmHg 43%
15:00 +26°C° 0 mm 1 mps 754 mmHg 43%
16:00 +25°C° 0 mm 1 mps 754 mmHg 48%
17:00 +24°C° 0 mm 1 mps 754 mmHg 54%
18:00 +24°C° 0 mm 1 mps 753 mmHg 59%
19:00 +22°C° 0 mm 1 mps 754 mmHg 64%
20:00 +19°C° 0 mm 2 mps 754 mmHg 68%
21:00 +17°C° 0 mm 2 mps 754 mmHg 73%
22:00 +16°C° 0 mm 1 mps 753 mmHg 74%
23:00 +16°C° 0 mm 1 mps 753 mmHg 75%
Show more